Location: Arthez
(43.0833°N, 0.2500°W)
Time: 23:34:39
(UTC+00:00)

Iridium 4 Rocket - Pass Details

Date: 23 October 2021
Orbit: 585 x 903 km, 86.9° (Epoch: 27 November)

Event Time Altitude Azimuth Distance (km) Brightness Sun altitude
Rises 17:42:35 0° 5° (N) 2,983 6.4 -7.5°
Reaches altitude 10° 17:44:52 10° 13° (NNE) 2,111 5.6 -7.9°
Maximum altitude 17:49:17 40° 83° (E) 1,046 3.8 -8.7°
Drops below altitude 10° 17:54:03 10° 153° (SSE) 2,286 5.8 -9.5°
Sets 17:56:37 0° 161° (SSE) 3,262 6.6 -10.0°
